Temperature
28 29 30 30 29 29 29 29 29 28 27 27 27 26 25 23 22 21 20 19 18 18 17 17 17 17 17 17 17 17 17 17 17 17 17 16 16 16 15 15 15 15 14 14
29 29 30 29 29 29 29 29 29 28 27 26 26 26 25 23 22 22 21 20 19 18 17 17 17 17 17 17 17 17 17 17 17 17 17 16 16 15 15 15 15 15 14 14
29 30 30 29 29 29 29 29 29 28 27 26 26 26 25 24 22 21 21 20 19 19 18 17 17 17 17 17 17 17 17 17 17 17 17 16 16 16 15 15 15 15 14 14
29 30 29 29 30 29 29 29 28 28 28 28 26 27 26 25 24 23 22 20 20 19 18 18 17 17 17 17 17 17 17 17 17 17 17 16 16 16 16 15 15 15 14 14
30 30 29 29 29 29 29 28 28 28 28 28 27 27 27 26 25 24 23 21 20 19 19 18 18 18 18 18 18 17 18 18 18 17 17 17 16 16 16 16 15 15 14 14
30 30 30 30 29 28 27 27 27 27 28 27 27 27 27 27 26 26 24 22 21 20 19 19 18 18 18 18 17 17 18 18 18 17 17 17 16 16 16 16 16 15 15 14
29 30 30 29 29 28 28 28 28 28 28 27 27 27 27 27 27 26 25 23 21 20 20 19 19 18 18 18 17 17 17 18 18 18 18 17 17 17 16 16 16 16 15 15
29 29 30 29 29 29 28 28 27 26 27 28 27 27 28 27 26 25 25 24 22 21 21 20 19 19 18 18 18 18 18 18 18 18 18 18 18 17 17 16 16 16 16 15
29 29 30 29 29 29 28 29 29 28 28 27 28 28 28 27 26 26 25 24 23 22 22 21 20 19 19 19 18 18 18 18 18 18 18 18 18 18 17 17 17 16 16 15
30 28 29 29 29 28 28 29 28 28 26 26 27 27 27 27 27 27 26 25 24 23 22 22 21 20 20 19 19 19 18 19 19 19 19 18 19 18 18 17 17 17 16 16
29 28 29 28 28 28 27 27 28 28 27 26 26 27 27 27 27 27 27 26 25 24 23 23 22 21 21 20 20 19 19 19 19 19 19 19 19 19 18 18 18 17 17 17
29 28 28 28 28 28 28 28 28 27 26 26 27 27 26 26 27 26 27 26 25 24 24 23 23 22 21 21 20 20 20 19 19 19 19 19 19 19 19 18 18 18 18 17
27 27 27 27 27 27 27 28 28 28 27 27 27 27 26 26 26 25 25 25 24 24 23 23 23 22 22 21 21 21 20 20 20 19 19 20 19 19 19 19 19 18 18 18
27 27 27 27 27 28 27 27 27 27 27 27 27 27 27 26 25 24 23 23 23 23 22 22 22 21 21 21 21 20 20 20 20 19 19 19 20 19 19 19 19 19 18 18
27 27 28 28 29 28 28 28 28 27 27 27 27 27 26 24 23 22 22 21 21 21 21 21 21 20 20 20 20 20 19 19 19 19 19 19 19 19 19 19 19 19 18 18
26 27 27 27 28 28 27 28 28 27 27 27 27 26 24 22 21 21 20 20 20 20 19 19 19 19 19 19 19 19 19 19 19 19 19 18 18 18 18 18 18 18 18 18
26 26 26 27 27 27 26 28 28 27 27 27 27 26 23 22 21 20 19 19 18 18 17 17 17 17 17 18 18 18 18 18 17 17 17 17 17 17 17 17 17 17 17 17
25 25 26 27 26 24 27 27 27 27 27 26 25 24 23 20 18 17 17 17 17 16 16 16 16 16 17 17 17 17 17 17 17 16 16 16 16 16 16 16 16 16 16 16
25 25 26 26 26 26 26 26 26 26 25 25 24 22 20 18 18 17 16 15 15 15 14 14 15 15 16 16 16 16 16 16 15 15 15 15 15 15 15 15 15 15 15 15
23 24 26 25 25 25 26 25 24 25 24 24 23 22 20 20 22 18 15 14 14 14 14 14 14 14 15 15 15 16 15 15 14 14 14 14 14 14 14 14 14 14 14 13
23 23 25 25 25 26 25 24 24 24 23 23 22 21 21 21 20 16 14 14 13 13 13 13 13 14 14 14 14 14 14 13 13 13 13 13 13 13 13 13 13 13 12 12
24 24 24 24 24 24 23 23 24 22 21 21 21 20 19 17 15 15 14 13 13 13 13 13 13 12 12 13 13 13 12 12 12 12 12 12 12 12 11 11 11 11 11 11
24 24 24 25 24 22 22 22 20 20 20 20 20 19 17 16 15 14 13 13 13 13 13 13 12 12 11 11 12 12 11 11 10 11 10 10 10 10 10 10 10 10 10 10
23 21 23 23 23 22 21 20 19 19 19 19 18 17 16 15 14 14 13 13 13 12 12 12 12 12 11 11 10 10 10 10 10 10 10 10 10 10 10 10 10 10 10 10
23 22 23 23 22 21 19 19 18 18 17 17 16 16 15 14 14 13 13 13 12 12 12 12 11 11 11 10 10 10 10 10 10 10 10 10 10 10 9 9 9 9 8 8
22 22 22 22 21 21 18 17 17 16 16 16 15 14 14 14 13 13 13 12 12 12 12 11 11 11 10 10 10 10 9 9 9 10 10 10 10 10 9 9 9 9 8 8
Wind_Speed
5 8 5 5 6 8 9 10 10 5 2 5 6 5 2 5 6 7 8 9 10 10 10 9 10 9 9 9 10 11 11 11 10 8 8 7 7 6 5 5 5 3 2 3
8 8 4 6 7 8 9 10 8 2 1 5 5 4 1 5 7 7 8 9 10 11 11 11 11 11 11 11 11 11 11 11 11 8 6 6 5 5 5 4 5 4 3 2
11 6 4 7 9 10 9 8 8 7 3 5 6 3 4 5 6 6 7 8 10 12 13 13 13 13 12 12 12 11 11 11 10 10 7 6 5 5 5 6 6 5 5 3
9 6 6 9 9 9 8 4 5 6 7 3 4 5 3 5 7 8 9 9 11 12 13 13 14 14 14 13 12 11 11 11 11 11 10 10 7 6 5 5 5 6 6 5
8 6 9 11 8 7 5 2 4 6 6 5 2 6 3 4 5 8 10 11 12 13 14 14 14 14 14 13 12 11 11 12 11 11 10 10 8 6 5 5 5 6 6 7
15 10 9 7 3 3 2 4 6 7 7 3 5 5 3 2 1 6 9 11 13 13 14 14 13 13 13 13 12 12 12 12 12 12 11 11 9 7 6 6 6 7 6 6
13 11 8 6 5 4 6 8 7 5 3 4 3 4 3 3 2 5 9 12 13 13 14 14 14 15 15 15 14 14 14 13 13 13 13 12 11 10 9 8 7 6 6 6
12 10 8 7 7 5 6 8 7 8 8 6 1 2 3 4 4 5 8 11 13 14 14 14 15 15 15 16 16 16 15 14 14 14 13 12 12 10 9 9 7 7 6 6
11 8 4 5 4 5 5 6 6 8 8 7 2 1 4 5 6 7 9 11 13 14 15 15 15 16 16 16 16 16 16 15 15 15 14 13 13 12 10 8 9 8 7 6
12 11 7 5 5 3 6 4 4 6 6 6 3 1 2 4 6 8 10 11 13 14 14 15 15 16 16 16 16 16 16 16 15 15 14 12 13 13 12 11 10 9 8 8
12 11 9 8 8 8 6 5 5 5 5 7 5 1 4 1 3 6 9 11 13 14 15 15 15 15 16 15 16 16 16 16 15 15 14 13 13 13 12 12 11 11 10 10
10 9 10 8 3 3 7 7 6 6 5 5 7 1 6 3 1 3 6 8 10 12 13 14 15 15 15 15 15 16 16 16 15 15 14 14 13 12 13 13 12 12 11 11
9 7 9 8 7 7 8 8 7 6 6 7 8 0 6 3 2 2 3 5 7 9 11 12 14 14 15 15 15 15 15 16 15 14 14 13 13 13 13 13 12 12 12 11
8 8 11 9 4 6 8 8 8 9 8 7 7 4 2 2 2 2 2 2 4 6 7 9 11 11 12 12 12 13 13 13 13 13 13 13 13 13 12 12 12 12 12 12
8 10 11 9 5 6 8 8 9 10 10 10 8 6 2 3 4 4 3 3 4 4 4 4 6 7 8 8 8 9 9 9 10 10 11 11 10 10 10 10 10 11 11 12
8 8 9 10 9 9 9 10 10 11 10 10 9 4 5 5 5 6 6 6 7 6 5 4 3 2 2 3 4 5 5 6 7 8 8 7 7 7 8 9 9 9 10 10
9 8 9 11 8 9 12 11 10 9 8 8 8 2 9 8 8 8 8 10 10 9 9 9 8 7 5 4 2 2 2 1 2 3 3 4 4 5 6 7 7 8 8 9
8 10 9 10 7 13 5 2 3 7 6 4 2 8 10 11 11 10 10 11 12 11 12 12 11 10 10 9 8 6 6 5 4 3 1 1 1 2 2 3 4 5 6 7
6 8 8 9 11 11 5 3 3 5 5 4 7 12 14 15 14 12 10 11 12 12 11 11 11 12 12 12 11 11 10 10 8 7 5 5 4 2 2 2 3 3 4 5
6 8 10 8 10 9 1 5 2 4 5 6 10 14 15 14 7 8 9 11 12 11 11 10 11 12 12 12 12 13 12 11 10 9 8 8 7 6 5 4 4 4 4 5
9 8 10 10 10 6 5 5 4 5 1 7 10 13 13 7 6 14 13 12 11 11 11 10 11 11 11 11 11 12 11 10 9 8 9 9 8 6 6 6 5 5 5 5
8 7 7 6 8 4 6 4 2 3 4 6 9 11 11 15 18 16 14 12 10 10 10 11 10 10 9 9 10 11 10 8 8 8 9 9 8 8 7 6 6 6 6 6
3 2 2 3 1 5 4 2 4 3 5 7 10 13 17 19 18 16 14 11 10 9 9 9 9 9 9 8 9 9 8 6 7 7 8 7 7 7 7 7 6 6 5 7
3 1 2 2 3 4 3 3 3 4 7 10 13 17 18 18 17 15 12 10 9 8 7 7 8 8 7 7 7 7 6 6 6 6 6 6 6 7 7 7 7 7 8 8
1 3 4 4 2 3 4 3 6 9 12 14 16 17 17 17 15 13 11 9 7 6 6 5 5 5 5 5 5 5 5 5 6 6 7 7 7 7 7 7 6 7 7 6
2 3 5 3 2 1 5 7 10 13 15 17 18 17 15 14 13 11 9 7 6 5 4 4 4 4 4 4 4 5 5 5 6 7 8 8 8 8 8 9 9 5 7 6
Wind_Direction
241 257 270 326 323 314 311 312 318 341 335 275 282 291 241 185 195 191 187 185 181 177 171 170 169 163 156 161 168 171 171 166 165 162 165 164 165 166 163 158 145 147 116 100
246 246 289 309 299 291 295 302 320 342 294 282 295 283 196 189 198 199 195 192 185 174 173 176 176 174 171 171 171 175 175 172 174 167 166 169 164 176 171 169 162 174 161 157
255 280 308 291 298 306 304 311 328 327 295 229 286 217 175 176 188 194 196 191 185 179 180 181 182 182 180 178 177 179 178 176 179 169 170 163 168 184 178 188 187 189 188 183
258 268 270 288 304 312 313 348 309 298 293 334 322 330 131 177 188 192 191 187 186 182 180 184 190 189 186 182 179 178 180 181 179 180 187 188 194 194 191 198 186 186 198 198
247 257 279 290 312 309 327 322 283 281 287 293 321 319 80 166 197 191 188 188 185 184 185 188 193 191 187 181 180 182 184 185 185 193 195 201 209 207 194 195 183 202 196 203
263 271 275 283 309 296 198 239 239 242 259 312 9 319 32 75 192 178 179 183 182 181 184 188 191 189 186 183 185 185 184 188 190 196 201 210 214 215 210 208 201 208 201 203
243 244 230 232 233 195 228 273 285 284 283 1 44 307 28 70 136 174 175 176 179 181 183 186 188 188 187 188 189 189 188 192 194 199 205 210 215 215 216 222 216 223 217 206
245 245 215 212 247 273 250 282 298 312 323 332 154 344 66 112 137 161 169 171 177 182 184 186 187 186 188 190 192 193 193 196 198 203 208 211 214 219 224 219 231 219 228 221
247 250 190 207 235 261 255 261 299 286 287 293 340 59 128 146 162 166 170 174 180 184 185 186 186 189 192 194 195 197 196 200 204 207 208 212 214 223 228 217 219 225 218 214
251 258 225 185 191 208 276 268 255 277 303 303 301 283 83 158 175 177 179 182 183 185 187 187 188 192 194 196 197 200 201 205 208 210 212 214 215 217 220 222 221 221 214 211
232 244 233 208 230 236 198 216 246 269 294 298 304 23 69 97 195 195 190 188 187 188 190 190 193 194 195 197 198 201 204 208 211 215 216 221 219 217 217 218 217 214 215 207
210 234 247 232 204 265 235 236 230 265 275 269 290 0 94 67 114 201 196 189 191 193 194 194 194 195 198 201 203 205 209 212 215 216 216 219 221 220 219 219 216 213 213 212
179 210 229 215 199 202 221 221 232 254 268 269 278 63 114 92 92 135 188 191 192 194 197 197 197 199 203 207 209 211 212 216 217 216 217 219 220 219 221 223 218 214 213 215
192 221 242 254 242 195 208 211 218 240 261 272 272 292 132 45 55 81 107 161 185 186 193 200 200 203 208 212 213 217 220 219 218 217 218 220 221 221 222 222 220 217 215 216
204 225 234 251 241 228 236 232 223 239 267 281 292 297 18 50 53 58 72 104 124 137 155 182 199 202 205 209 214 220 224 225 223 220 223 225 224 224 225 224 222 220 218 220
209 236 231 234 227 231 242 245 243 249 260 267 273 277 96 100 90 77 72 82 91 92 92 94 101 133 171 198 204 209 219 223 219 223 229 231 228 226 226 224 222 222 224 227
199 216 229 237 216 231 244 244 246 248 250 264 272 180 139 122 94 80 76 78 76 76 75 73 70 67 60 55 69 105 114 140 176 210 229 228 228 233 237 237 231 230 232 234
220 219 231 244 223 245 259 79 261 261 256 247 192 141 136 119 103 85 79 83 80 75 72 70 70 69 67 63 62 66 75 75 76 69 54 41 239 244 252 250 250 249 247 247
229 221 235 242 242 249 205 169 215 238 238 200 167 145 137 133 120 91 80 81 81 77 73 71 70 71 69 68 68 67 66 63 57 51 44 38 34 31 13 332 303 286 275 267
192 220 233 233 253 260 238 117 155 235 219 161 164 159 159 168 163 117 104 94 87 81 77 75 74 71 67 66 69 70 63 58 51 46 46 46 41 35 28 16 356 337 307 290
188 206 228 235 245 253 91 124 180 238 101 146 167 170 175 175 106 123 120 107 100 93 87 80 73 70 67 67 68 68 63 57 50 48 49 46 40 38 31 19 9 354 336 322
211 208 218 234 243 235 117 155 220 56 99 153 161 159 142 118 117 123 121 116 108 101 94 88 81 75 68 67 73 73 65 56 53 50 46 43 35 25 24 16 7 356 342 321
238 288 247 239 94 92 129 102 82 110 128 141 145 139 132 130 128 126 122 118 112 103 96 92 91 84 75 67 66 69 66 57 50 45 39 33 28 24 15 2 354 343 338 326
191 241 255 243 131 114 123 125 132 135 133 133 132 132 132 129 128 127 124 120 115 106 98 92 86 82 75 67 63 61 55 42 33 27 18 11 5 1 5 346 344 341 337 334
316 199 234 240 135 127 115 123 132 128 126 125 125 126 128 127 127 127 125 124 120 113 100 87 81 76 70 63 55 46 37 20 9 1 352 343 342 345 333 329 327 322 327 334
325 286 280 307 77 133 123 128 133 132 129 128 126 123 122 121 121 120 119 120 118 110 101 85 69 58 48 45 44 34 19 5 349 341 339 334 330 332 323 320 315 281 267 244
Height
1518 1514 1508 1505 1505 1506 1504 1504 1502 1500 1502 1503 1502 1503 1505 1510 1512 1514 1517 1519 1521 1524 1527 1529 1532 1536 1539 1542 1546 1549 1553 1556 1559 1561 1564 1566 1568 1569 1570 1571 1571 1571 1571 1570
1514 1509 1504 1505 1504 1503 1501 1502 1498 1498 1502 1502 1500 1501 1503 1508 1510 1512 1514 1517 1520 1522 1525 1528 1531 1534 1538 1541 1544 1548 1552 1555 1558 1561 1563 1565 1568 1569 1570 1571 1570 1571 1570 1570
1510 1504 1504 1504 1501 1500 1497 1499 1498 1499 1499 1500 1500 1499 1502 1505 1509 1511 1513 1515 1517 1520 1523 1526 1529 1533 1537 1540 1543 1547 1550 1554 1557 1560 1562 1565 1566 1568 1569 1570 1570 1570 1570 1570
1504 1501 1503 1501 1498 1497 1497 1495 1498 1498 1498 1495 1500 1501 1497 1499 1504 1507 1510 1513 1516 1519 1522 1525 1528 1532 1535 1538 1542 1546 1549 1552 1555 1558 1562 1564 1566 1568 1569 1570 1570 1569 1569 1569
1501 1500 1501 1500 1497 1497 1497 1497 1497 1496 1496 1496 1495 1498 1494 1495 1498 1501 1506 1510 1513 1517 1520 1523 1526 1530 1534 1537 1540 1544 1547 1550 1554 1557 1560 1562 1565 1567 1568 1568 1568 1568 1568 1568
1498 1497 1497 1496 1496 1497 1498 1498 1496 1494 1490 1501 1498 1500 1498 1490 1493 1496 1501 1507 1511 1515 1518 1522 1525 1529 1532 1536 1539 1542 1545 1548 1552 1555 1558 1560 1563 1565 1566 1566 1567 1567 1567 1567
1497 1493 1493 1494 1495 1497 1497 1498 1501 1501 1500 1500 1495 1497 1496 1489 1491 1493 1498 1504 1509 1513 1516 1520 1522 1525 1530 1534 1537 1541 1543 1546 1550 1553 1555 1558 1560 1562 1563 1565 1565 1566 1567 1566
1498 1497 1488 1490 1491 1492 1493 1494 1507 1515 1508 1496 1492 1496 1489 1489 1492 1495 1498 1502 1507 1511 1514 1517 1520 1523 1527 1531 1535 1539 1541 1544 1547 1550 1553 1555 1557 1559 1561 1562 1563 1563 1564 1565
1491 1492 1485 1488 1489 1490 1492 1491 1485 1495 1496 1501 1492 1489 1486 1489 1491 1494 1497 1501 1505 1508 1512 1515 1519 1522 1526 1529 1533 1536 1539 1541 1544 1547 1550 1552 1554 1556 1558 1559 1559 1561 1560 1561
1482 1492 1484 1488 1489 1491 1489 1487 1492 1495 1509 1509 1498 1492 1490 1488 1489 1492 1495 1499 1502 1506 1510 1513 1517 1520 1524 1527 1530 1533 1536 1538 1541 1544 1547 1549 1550 1552 1554 1555 1556 1557 1557 1557
1481 1490 1486 1486 1489 1486 1493 1493 1491 1490 1495 1506 1508 1497 1485 1487 1488 1490 1492 1496 1500 1504 1507 1511 1515 1518 1521 1525 1528 1530 1533 1536 1538 1541 1543 1545 1547 1548 1549 1551 1552 1553 1554 1554
1479 1483 1486 1482 1481 1483 1483 1485 1489 1497 1499 1497 1498 1495 1485 1487 1489 1490 1491 1495 1498 1502 1505 1509 1512 1516 1519 1522 1525 1528 1530 1533 1535 1537 1539 1541 1542 1544 1545 1546 1547 1548 1549 1550
1479 1485 1493 1492 1491 1487 1484 1483 1483 1486 1491 1493 1496 1493 1486 1488 1490 1492 1494 1496 1498 1501 1504 1507 1510 1513 1516 1519 1522 1525 1527 1530 1532 1534 1535 1536 1538 1539 1541 1542 1543 1544 1545 1546
1477 1478 1483 1488 1482 1477 1482 1483 1483 1485 1487 1488 1487 1484 1483 1487 1490 1493 1495 1497 1498 1500 1503 1505 1508 1511 1513 1516 1519 1521 1524 1526 1528 1529 1530 1531 1533 1534 1536 1537 1538 1539 1540 1541
1475 1476 1474 1471 1470 1473 1475 1477 1479 1483 1482 1484 1481 1480 1484 1490 1493 1496 1497 1498 1499 1500 1502 1504 1507 1509 1511 1513 1515 1517 1519 1521 1523 1524 1525 1526 1528 1529 1530 1532 1533 1534 1535 1536
1473 1474 1473 1475 1471 1473 1476 1474 1476 1477 1478 1478 1479 1482 1488 1494 1496 1498 1498 1499 1499 1501 1502 1504 1505 1507 1509 1510 1512 1513 1515 1517 1518 1519 1520 1522 1523 1524 1525 1526 1527 1528 1529 1530
1470 1474 1478 1475 1471 1476 1481 1471 1471 1473 1473 1476 1478 1481 1489 1494 1498 1500 1501 1501 1502 1503 1504 1504 1505 1506 1507 1508 1510 1510 1511 1513 1513 1514 1515 1517 1518 1519 1520 1521 1522 1522 1523 1524
1470 1473 1472 1472 1478 1492 1471 1467 1470 1472 1473 1476 1480 1485 1490 1497 1502 1504 1504 1505 1505 1506 1506 1506 1507 1507 1507 1508 1509 1509 1510 1511 1511 1512 1513 1513 1513 1514 1515 1516 1516 1517 1517 1518
1470 1472 1471 1472 1477 1475 1468 1469 1471 1474 1475 1477 1481 1488 1494 1499 1501 1506 1508 1508 1509 1509 1509 1509 1509 1509 1508 1508 1509 1510 1510 1510 1511 1511 1511 1510 1511 1511 1511 1511 1511 1511 1511 1511
1471 1470 1469 1473 1481 1483 1468 1469 1473 1474 1478 1479 1482 1488 1492 1495 1494 1507 1511 1511 1512 1512 1512 1512 1512 1511 1510 1509 1509 1510 1511 1510 1512 1512 1510 1509 1508 1508 1507 1507 1506 1506 1506 1506
1471 1472 1469 1470 1475 1468 1468 1472 1475 1481 1480 1480 1483 1487 1491 1493 1496 1507 1511 1512 1514 1514 1515 1514 1514 1513 1512 1511 1512 1511 1512 1512 1513 1512 1510 1508 1507 1506 1505 1504 1503 1502 1502 1501
1465 1467 1470 1470 1476 1474 1472 1473 1474 1478 1481 1481 1484 1488 1492 1497 1502 1507 1511 1514 1515 1516 1517 1516 1515 1515 1514 1514 1514 1513 1513 1513 1513 1512 1510 1508 1506 1506 1505 1503 1501 1500 1499 1498
1462 1462 1461 1464 1469 1472 1473 1475 1479 1480 1482 1483 1486 1490 1494 1499 1504 1509 1512 1515 1517 1518 1518 1518 1518 1517 1516 1516 1515 1514 1514 1514 1513 1512 1510 1508 1506 1505 1503 1501 1500 1499 1497 1496
1464 1467 1465 1465 1466 1472 1475 1478 1480 1482 1483 1486 1489 1493 1497 1501 1506 1510 1513 1516 1518 1519 1520 1519 1519 1518 1518 1517 1516 1515 1515 1514 1513 1512 1510 1508 1506 1504 1502 1500 1499 1497 1495 1493
1463 1466 1465 1466 1470 1474 1477 1479 1481 1483 1485 1488 1492 1496 1500 1504 1508 1511 1514 1517 1519 1520 1520 1520 1519 1519 1518 1518 1517 1516 1515 1513 1512 1511 1509 1507 1506 1503 1501 1499 1496 1494 1492 1489
1467 1468 1467 1467 1472 1473 1478 1481 1483 1485 1488 1491 1495 1499 1504 1507 1510 1513 1516 1518 1519 1520 1520 1519 1519 1519 1518 1517 1516 1515 1514 1513 1511 1510 1508 1506 1504 1501 1499 1496 1493 1490 1487 1484